User: anonymous   Login
Location: Fort Wayne
(41.1310°N, 85.1290°W)
Time: 14:44:33
(UTC-04:00)
Language:

Meteor 2-9 Rocket - Orbit

View from above orbital plane
View from above orbital plane
View from above satellite
View from above satellite

Ground track
Ground track

The orbit data is extracted from the following two-line orbital elements,

1 13719U 82116B   16127.18778640  .00000144  00000-0  66477-4 0  9990
2 13719  81.2572  39.0672 0072872  73.9589  90.5722 14.14579881722826
Epoch (UTC): 06 May 2016 04:30:24
Eccentricity: 0.0072872
inclination: 81.2572°
perigee height: 791 km
apogee height: 896 km
right ascension of ascending node: 39.0672°
argument of perigee: 73.9589°
revolutions per day: 14.14579881
mean anomaly at epoch: 90.5722°
orbit number at epoch: 72282

The dashed part of the orbit path shows where the satellite is in the earth's shadow,  

DLR